Narsarsuaq, Greenland

4:56 AM -03 on January 16, 2018 (GMT -0300)
Narsarsuaq

Weather History for BGBW - May, 2014

Change the Weather History Date:

Saturday, May 17, 2014

  Actual Average Record
Temperature  
Mean Temperature 43 °F -  
Max Temperature 54 °F 53 °F 64 °F (2005)
Min Temperature 32 °F 38 °F 32 °F (1999)
Degree Days  
Heating Degree Days 22    
Moisture  
Dew Point 26 °F    
Average Humidity 46    
Maximum Humidity 81    
Minimum Humidity 15    
Precipitation  
Precipitation 0.00 in 0.06 in - ()
Sea Level Pressure  
Sea Level Pressure 30.09 in    
Wind  
Wind Speed 5 mph ()    
Max Wind Speed 13 mph    
Max Gust Speed -    
Visibility 9.3 miles    
Events      
Averages and records for this station are not official NWS values.
T = Trace of Precipitation, MM = Missing Value Source: Averaged Metar Reports

Daily Weather History Graph

Daily Weather History Graph

Search for Another Location

Airport or City:

Trip Planner

Search our weather history database for the weather conditions in past years. The results will help you decide how hot, cold, wet, or windy it might be!

Date:

Astronomy

May. 17, 2014 Rise Set
Actual Time 4:10 AM -02 9:47 PM -02
Civil Twilight 2:58 AM -02 11:00 PM -02
Nautical Twilight 1:30 AM -02 12:25 AM -02
Astronomical Twilight Sun does not rise Sun does not rise
Moon No Moon Rise 6:49 AM -02 (5/17)
Length of Visible Light 20h 02m
Length of Day
17h 36m
Waning Gibbous, 90% of the Moon is Illuminated
May 17
Waning Gibbous
May 21
Last Quarter
May 28
New
Jun 5
First Quarter
Jun 13
Full

Hourly Weather History & Observations

Time (-02) Temp. Windchill Dew Point Humidity Pressure Visibility Wind Dir Wind Speed Gust Speed Precip Events Conditions
12:00 AM 36 °F - 28 °F 65% 29.85 in 25 mi East 5.8 mph - -  
1:00 AM 35 °F - 28 °F 67% 29.88 in 25 mi ESE 3.5 mph - -  
2:00 AM 34 °F - 28 °F 71% 29.91 in 28 mi ESE 1.2 mph - -  
3:00 AM 32 °F - 26 °F 71% 29.92 in 28 mi NE 5.8 mph - -  
4:00 AM 33 °F - 27 °F 72% 29.96 in 22 mi SW 6.9 mph - -  
5:00 AM 34 °F - 27 °F 66% 29.99 in 28 mi East 5.8 mph - -  
5:50 AM 33.8 °F - 28.4 °F 81% 30.01 in 6.2 mi East 1.2 mph - N/A   Clear
6:00 AM 33 °F - 26 °F 67% 30.04 in 25 mi SSW 2.3 mph - -  
6:50 AM 33.8 °F - 28.4 °F 81% 30.04 in 6.2 mi SW 1.2 mph - N/A   Partly Cloudy
7:00 AM 34 °F - 29 °F 74% 30.06 in 25 mi South 1.2 mph - -  
7:50 AM 37.4 °F 34.9 °F 30.2 °F 75% 30.06 in 6.2 mi WSW 3.5 mph - N/A   Partly Cloudy
8:00 AM 38 °F - 29 °F 61% 30.07 in 22 mi West 2.3 mph - -  
8:50 AM 39.2 °F 37.0 °F 30.2 °F 70% 30.06 in 6.2 mi South 3.5 mph - N/A   Partly Cloudy
9:00 AM 40 °F - 29 °F 52% 30.09 in 16 mi SW 5.8 mph - -  
9:50 AM 42.8 °F 40.1 °F 30.2 °F 61% 30.06 in 6.2 mi WNW 4.6 mph - N/A   Clear
10:00 AM 42 °F - 28 °F 46% 30.09 in 19 mi West 4.6 mph - -  
10:50 AM 46.4 °F 43.5 °F 24.8 °F 43% 30.09 in 6.2 mi West 5.8 mph - N/A   Clear
11:00 AM 46 °F - 23 °F 28% 30.11 in 13 mi West 6.9 mph - -  
11:50 AM 48.2 °F - 28.4 °F 46% 30.09 in 6.2 mi WSW 5.8 mph - N/A   Clear
12:00 PM 48 °F - 25 °F 27% 30.12 in 22 mi West 5.8 mph - -  
12:50 PM 50.0 °F - 24.8 °F 37% 30.09 in 6.2 mi West 6.9 mph - N/A   Clear
1:00 PM 49 °F - 23 °F 23% 30.12 in 19 mi WSW 9.2 mph - -  
1:50 PM 50.0 °F - 24.8 °F 37% 30.12 in 6.2 mi WSW 6.9 mph - N/A   Partly Cloudy
2:00 PM 50 °F - 23 °F 22% 30.13 in 18 mi West 6.9 mph - -  
2:50 PM 51.8 °F - 24.8 °F 35% 30.12 in 6.2 mi West 5.8 mph - N/A   Partly Cloudy
3:00 PM 52 °F - 19 °F 16% 30.14 in 25 mi West 6.9 mph - -  
3:50 PM 51.8 °F - 26.6 °F 38% 30.12 in 6.2 mi WSW 6.9 mph - N/A   Partly Cloudy
4:00 PM 51 °F - 18 °F 16% 30.14 in 19 mi WSW 6.9 mph - -  
4:50 PM 53.6 °F - 21.2 °F 28% 30.12 in 6.2 mi West 5.8 mph - N/A   Partly Cloudy
5:00 PM 53 °F - 19 °F 15% 30.14 in 19 mi WSW 5.8 mph - -  
5:50 PM 53.6 °F - 23.0 °F 30% 30.12 in 6.2 mi West 6.9 mph - N/A   Partly Cloudy
6:00 PM 54 °F - 20 °F 15% 30.15 in 25 mi West 6.9 mph - -  
6:50 PM 51.8 °F - 24.8 °F 35% 30.12 in 6.2 mi WSW 9.2 mph - N/A   Partly Cloudy
7:00 PM 51 °F - 20 °F 18% 30.15 in 22 mi WSW 12.7 mph - -  
7:50 PM 50.0 °F - 28.4 °F 43% 30.15 in 6.2 mi WSW 11.5 mph - N/A   Partly Cloudy
8:00 PM 51 °F - 21 °F 19% 30.17 in 25 mi WSW 10.4 mph - -  
8:50 PM 48.2 °F - 30.2 °F 50% 30.15 in 6.2 mi West 4.6 mph - N/A   Scattered Clouds
9:00 PM 47 °F - 28 °F 34% 30.18 in 25 mi WSW 4.6 mph - -  
9:50 PM 44.6 °F 43.1 °F 30.2 °F 57% 30.18 in 6.2 mi ENE 3.5 mph - N/A   Mostly Cloudy
10:00 PM 46 °F - 28 °F 36% 30.19 in 25 mi ESE 3.5 mph - -   Mostly Cloudy
10:50 PM 44.6 °F 43.1 °F 30.2 °F 57% 30.18 in 6.2 mi East 3.5 mph - N/A   Mostly Cloudy
11:00 PM 45 °F - 27 °F 36% 30.20 in 28 mi NE 3.5 mph - -   Mostly Cloudy
11:50 PM 42.8 °F 41.1 °F 30.2 °F 61% 30.18 in 6.2 mi ENE 3.5 mph - N/A   Mostly Cloudy